Location: Home
(42.5358°N, 72.7383°W)
Time: 14:57:21
(UTC-05:00)

Vanguard 3 - Pass Details

Date: 30 November 2021
Orbit: 508 x 3260 km, 33.3° (Epoch: 20 January)

Event Time Altitude Azimuth Distance (km) Brightness Sun altitude
Rises 06:08:14 0° 252° (WSW) 7,209 11.5 -9.5°
Reaches altitude 10° 06:13:24 10° 249° (WSW) 6,084 11.2 -8.6°
Maximum altitude 06:31:09 58° 178° (S) 2,736 10.0 -5.6°
Drops below altitude 10° 06:42:14 10° 103° (ESE) 3,975 12.4 -3.8°
Sets 06:44:52 0° 99° (E) 4,658 12.8 -3.3°
